KC1UIX-13 Weather Reports


Display with metric or nautical units.
time (UTC)temp
F
wind
direction
speed
MPH
gust
MPH
rain 1hr
in
rain 24hr
in
rain mn
in
humidity
%
barometer
mb
20260904212018 69 264 1.0 2.0 0.08 0.08 0.08 89 1008.3
20260904211020 68 193 0.0 1.0 0.08 0.08 0.08 89 1008.5
20260904210020 68 307 1.0 3.0 0.00 0.00 0.00 88 1008.3
20260904205101 68 245 2.0 6.0 0.00 0.00 0.00 88 1008.0
20260904204018 68 244 1.0 4.0 0.00 0.00 0.00 88 1007.9
20260904203018 68 248 2.0 5.0 0.00 0.00 0.00 88 1008.1
20260904202018 68 248 3.0 6.0 0.00 0.00 0.00 88 1008.1
20260904201019 68 246 2.0 5.0 0.00 0.00 0.00 88 1008.2
20260904200019 68 250 2.0 5.0 0.00 0.00 0.00 87 1008.2
20260904195039 69 240 2.0 5.0 0.00 0.00 0.00 85 1008.2
20260904194019 71 245 2.0 6.0 0.00 0.00 0.00 82 1008.1
20260904193020 72 235 2.0 7.0 0.00 0.00 0.00 79 1008.2
20260904192019 72 246 1.0 7.0 0.00 0.00 0.00 80 1008.3
20260904191019 71 247 2.0 7.0 0.00 0.00 0.00 82 1008.5
20260904190020 72 247 3.0 8.0 0.00 0.00 0.00 81 1008.8
20260904185020 73 243 2.0 7.0 0.00 0.00 0.00 78 1008.7
20260904184017 71 236 2.0 7.0 0.00 0.00 0.00 81 1008.8
20260904183017 70 245 3.0 6.0 0.00 0.00 0.00 84 1008.7
20260904182020 70 223 2.0 7.0 0.00 0.00 0.00 84 1008.7
20260904181021 71 250 2.0 6.0 0.00 0.00 0.00 82 1008.8
20260904180040 71 219 0.0 2.0 0.00 0.00 0.00 81 1008.7
20260904175017 71 240 0.0 2.0 0.00 0.00 0.00 81 1008.7
20260904174018 71 228 1.0 4.0 0.00 0.00 0.00 81 1008.7
20260904173018 69 205 2.0 5.0 0.00 0.00 0.00 84 1008.9
20260904172019 69 217 1.0 4.0 0.00 0.00 0.00 84 1008.9
20260904171019 70 214 0.0 3.0 0.00 0.00 0.00 83 1009.0
20260904170019 71 204 1.0 4.0 0.00 0.00 0.00 82 1009.1
20260904165018 73 219 1.0 3.0 0.00 0.00 0.00 78 1009.1
20260904164019 74 266 1.0 3.0 0.00 0.00 0.00 76 1009.1
20260904163039 74 271 0.0 2.0 0.00 0.00 0.00 78 1009.3
20260904162026 73 203 2.0 5.0 0.00 0.00 0.00 78 1009.5
20260904161016 74 212 2.0 5.0 0.00 0.00 0.00 78 1009.6
20260904160020 74 216 1.0 6.0 0.00 0.00 0.00 78 1009.6
20260904155020 73 215 1.0 3.0 0.00 0.00 0.00 80 1009.6
20260904154020 72 211 1.0 4.0 0.00 0.00 0.00 81 1009.6
20260904153020 72 220 1.0 3.0 0.00 0.00 0.00 81 1009.5
20260904152017 72 228 1.0 3.0 0.00 0.00 0.00 82 1009.5
20260904151037 71 225 1.0 4.0 0.00 0.00 0.00 82 1009.6
20260904150017 71 247 1.0 5.0 0.00 0.00 0.00 83 1009.6
20260904145020 70 236 1.0 4.0 0.00 0.00 0.00 84 1009.6
20260904144018 70 224 1.0 4.0 0.00 0.00 0.00 85 1009.6
20260904143038 69 206 2.0 4.0 0.00 0.00 0.00 85 1009.5
20260904142019 69 196 1.0 5.0 0.00 0.00 0.00 86 1009.6
20260904141018 68 220 2.0 6.0 0.00 0.00 0.00 87 1009.5
20260904140019 68 222 2.0 8.0 0.00 0.00 0.00 88 1009.5
20260904135019 68 238 2.0 5.0 0.00 0.00 0.00 88 1009.6
20260904134036 68 238 2.0 4.0 0.00 0.00 0.00 89 1009.6
20260904133019 67 221 1.0 4.0 0.00 0.00 0.00 90 1009.6
20260904132019 67 283 1.0 3.0 0.00 0.00 0.00 91 1009.6
20260904131020 66 266 2.0 4.0 0.00 0.00 0.00 92 1009.6
20260904130019 66 315 1.0 3.0 0.00 0.00 0.00 94 1009.6
20260904125017 65 305 2.0 4.0 0.00 0.00 0.00 94 1009.7
20260904124017 65 315 1.0 4.0 0.00 0.00 0.00 95 1009.7
20260904123017 65 262 1.0 3.0 0.00 0.00 0.00 95 1009.8
20260904122020 65 242 2.0 3.0 0.00 0.00 0.00 95 1009.8
20260904121020 65 295 1.0 2.0 0.00 0.00 0.00 95 1009.7
20260904120020 65 267 1.0 3.0 0.00 0.00 0.00 95 1009.8
20260904115018 65 290 1.0 2.0 0.00 0.00 0.00 95 1009.6
20260904114038 64 264 1.0 3.0 0.00 0.00 0.00 95 1009.5
20260904113018 64 269 1.0 2.0 0.00 0.00 0.00 95 1009.5
20260904112018 64 281 1.0 4.0 0.00 0.00 0.00 95 1009.4
20260904111038 64 352 1.0 3.0 0.00 0.00 0.00 95 1009.4
20260904110018 64 325 1.0 3.0 0.00 0.00 0.00 95 1009.4
20260904105019 64 296 1.0 2.0 0.00 0.00 0.00 95 1009.4
20260904104019 64 236 1.0 3.0 0.00 0.00 0.00 95 1009.4
20260904103019 64 232 1.0 2.0 0.00 0.00 0.00 95 1009.3
20260904102019 64 236 1.0 3.0 0.00 0.00 0.00 95 1009.3
20260904101037 64 243 1.0 4.0 0.00 0.00 0.00 95 1009.4
20260904100019 64 229 1.0 3.0 0.00 0.00 0.00 95 1009.4
20260904095020 64 215 1.0 3.0 0.00 0.00 0.00 95 1009.5
20260904094040 64 239 1.0 3.0 0.00 0.01 0.00 95 1009.5
20260904093017 64 233 1.0 3.0 0.00 0.03 0.00 95 1009.5
20260904092017 64 245 1.0 3.0 0.00 0.10 0.00 94 1009.5
20260904091017 64 240 1.0 3.0 0.00 0.17 0.00 94 1009.5
20260904090018 64 263 1.0 3.0 0.00 0.19 0.00 94 1009.4
20260904085041 64 242 1.0 3.0 0.00 0.19 0.00 94 1009.3
20260904084018 64 244 1.0 2.0 0.00 0.19 0.00 94 1009.3
20260904083018 64 238 0.0 2.0 0.00 0.19 0.00 94 1009.3
20260904082039 64 239 1.0 2.0 0.00 0.19 0.00 94 1009.3
20260904081038 64 234 1.0 2.0 0.00 0.19 0.00 94 1009.4
20260904080018 64 237 1.0 3.0 0.00 0.19 0.00 94 1009.5
20260904075058 64 243 1.0 3.0 0.00 0.19 0.00 94 1009.5
20260904074059 64 240 1.0 2.0 0.00 0.19 0.00 94 1009.6
20260904073019 64 242 1.0 3.0 0.00 0.19 0.00 94 1009.8
20260904072019 64 232 0.0 3.0 0.00 0.19 0.00 94 1009.8
20260904071019 64 207 0.0 1.0 0.00 0.19 0.00 94 1009.8
20260904070019 64 236 0.0 2.0 0.00 0.19 0.00 94 1009.9
20260904065019 64 243 1.0 2.0 0.00 0.19 0.00 94 1009.8
20260904064017 64 230 0.0 1.0 0.00 0.19 0.00 94 1010.0
20260904063017 64 233 0.0 3.0 0.00 0.19 0.00 94 1010.2
20260904062020 64 235 1.0 3.0 0.00 0.19 0.00 94 1010.4
20260904061021 64 239 1.0 3.0 0.00 0.19 0.00 94 1010.5
20260904060018 64 233 1.0 2.0 0.00 0.19 0.00 94 1010.6
20260904055018 64 244 1.0 3.0 0.00 0.19 0.00 94 1010.7
20260904054018 64 243 1.0 3.0 0.00 0.19 0.00 93 1010.7
20260904053021 64 244 1.0 3.0 0.00 0.19 0.00 93 1010.7
20260904052018 64 242 1.0 4.0 0.00 0.19 0.00 93 1010.8
20260904051018 64 242 1.0 4.0 0.00 0.19 0.00 93 1010.8
20260904050019 64 241 1.0 3.0 0.00 0.19 0.00 93 1011.0
20260904045019 64 244 1.0 3.0 0.00 0.19 0.00 93 1011.1
20260904044019 64 247 1.0 3.0 0.00 0.19 0.00 93 1011.3
20260904043059 64 246 1.0 4.0 0.00 0.19 0.00 93 1011.5
20260904042019 64 235 1.0 3.0 0.00 0.19 0.00 93 1011.4
20260904041019 64 250 0.0 2.0 0.00 0.19 0.00 93 1011.4
20260904040016 64 241 1.0 3.0 0.00 0.19 0.00 93 1011.5
20260904035020 64 247 1.0 3.0 0.00 0.19 0.19 93 1011.7
20260904034019 64 237 1.0 2.0 0.00 0.19 0.19 93 1011.8
20260904033020 64 242 0.0 2.0 0.00 0.19 0.19 93 1011.8
20260904032017 64 287 0.0 1.0 0.00 0.19 0.19 93 1011.7
20260904031037 64 277 0.0 1.0 0.00 0.19 0.19 93 1011.5
20260904030017 64 163 0.0 1.0 0.00 0.19 0.19 93 1011.6
20260904025021 64 168 0.0 1.0 0.00 0.19 0.19 93 1011.8
20260904024041 64 258 0.0 0.0 0.00 0.19 0.19 93 1011.8
20260904023038 64 243 0.0 1.0 0.00 0.19 0.19 93 1012.0
20260904022018 64 255 0.0 1.0 0.00 0.19 0.19 93 1012.0
20260904021021 64 275 0.0 1.0 0.00 0.19 0.19 93 1012.1
20260904020017 64 235 0.0 1.0 0.00 0.19 0.19 93 1012.2
20260904015017 64 275 0.0 1.0 0.00 0.19 0.19 93 1012.3
20260904014017 64 357 1.0 2.0 0.00 0.19 0.19 93 1012.5
20260904013019 64 3 0.0 2.0 0.00 0.19 0.19 93 1012.5
20260904012018 64 353 1.0 2.0 0.00 0.19 0.19 93 1012.4
20260904011018 64 358 1.0 3.0 0.00 0.19 0.19 92 1012.2
20260904010038 64 348 0.0 1.0 0.00 0.19 0.19 92 1012.1
20260904005018 64 310 0.0 1.0 0.00 0.19 0.19 92 1012.0
20260904004057 64 261 0.0 1.0 0.00 0.19 0.19 92 1012.0
20260904003017 64 2 0.0 1.0 0.00 0.19 0.19 92 1011.9
20260904002019 64 7 0.0 1.0 0.00 0.19 0.19 92 1011.9
20260904001019 64 304 0.0 1.0 0.00 0.19 0.19 92 1011.7
20260904000019 65 338 0.0 0.0 0.00 0.19 0.19 91 1011.8
20260903235017 65 355 0.0 1.0 0.00 0.19 0.19 91 1012.0
20260903234018 65 339 0.0 2.0 0.00 0.19 0.19 91 1011.6
20260903233017 65 250 0.0 1.0 0.00 0.19 0.19 91 1011.7
20260903232018 65 272 0.0 0.0 0.00 0.19 0.19 90 1011.9
20260903231018 66 218 0.0 1.0 0.00 0.19 0.19 90 1012.0
20260903230059 66 0.0 0.0 0.00 0.19 0.19 90 1011.9
20260903225018 66 0.0 0.0 0.00 0.19 0.19 90 1011.9
20260903224019 66 252 0.0 1.0 0.00 0.19 0.19 89 1012.2
20260903223039 66 248 0.0 2.0 0.00 0.19 0.19 89 1012.2
20260903222039 67 224 0.0 2.0 0.00 0.19 0.19 88 1012.2
20260903221019 67 214 0.0 2.0 0.00 0.19 0.19 88 1012.2
20260903220039 67 208 1.0 2.0 0.00 0.19 0.19 88 1012.3
20260903215016 68 271 0.0 1.0 0.00 0.19 0.19 87 1012.3
20260903214019 68 241 0.0 1.0 0.00 0.19 0.19 87 1012.3
20260903213020 68 241 1.0 3.0 0.00 0.19 0.19 86 1012.2